Regional Weather Roundup
Issued by NWS

Home | Current Version | Previous Version | Text Only | Print | Product List | Glossary On
Versions: 1 2 3 4 5 6 7 8 9 10 11 12 13 14 15 16 17 18 19 20 21 22 23 24 25 26 27 28 29 30 31 32 33 34 35 36 37 38 39 40 41 42 43 44 45 46 47 48 49 50
000
ASHW40 PHFO 251612
RWRHI

WEATHER ROUNDUP FOR HAWAII
NATIONAL WEATHER SERVICE HONOLULU HI
600 AM HST SAT MAR 25 2017

THIS IS AN AUTOMATED REPORT THAT HAS NOT BEEN QUALITY CONTROLLED.

NOTE..."FAIR" INDICATES FEW OR NO CLOUDS BELOW 12,000 FEET WITH NO
SIGNIFICANT WEATHER AND/OR OBSTRUCTIONS TO VISIBILITY.

* - THESE SITES REPORT LIMITED FIELDS

HIZ001>004-251700-
KAUAI-NIIHAU-

CITY           SKY/WX    TMP DP  RH WIND       PRES   REMARKS
LIHUE APT      CLOUDY    74  69  85 NE13      30.20R
PORT ALLEN*      N/A     64 N/A N/A NE7         N/A
POIPU*           N/A     73 N/A N/A E7G14       N/A
PRINCEVILLE*     N/A     72 N/A N/A SE7         N/A
KOKOLE POINT*  NOT AVBL
MOLOAA DAIRY*    N/A     72  68  88 E5G12       N/A
WAIMEA HTS*    NOT AVBL
PUU OPAE*      NOT AVBL
PUU LUA*       NOT AVBL
MAKAHA RIDGE*  NOT AVBL
$$

HIZ005>011-251700-
OAHU-

CITY           SKY/WX    TMP DP  RH WIND       PRES   REMARKS
HONOLULU       PTCLDY    71  65  81 VRB6      30.17R
KALAELOA       CLEAR     69  63  81 NE5       30.19R
KANEOHE MCB    NOT AVBL
WHEELER FIELD  NOT AVBL
BELLOWS*       NOT AVBL
KAHUKU*        NOT AVBL
WHEELER*       NOT AVBL
WAIANAE HARBOR NOT AVBL
DILLINGHAM*      N/A     82  82 100 SW2         N/A  HX  97
KAHUKU TRN*      N/A     70  68  94 W6G17       N/A
KAWAILOA*        N/A     66  63  88 E7G16       N/A
KII*             N/A     73  66  78 E12G17      N/A
MAKUA RANGE*     N/A     66  63  88 NW6         N/A
OAHU FOREST NW NOT AVBL
SCHOFIELD BRK*   N/A     66  64  94 MISG        N/A
SCHOFIELD S*   NOT AVBL
WAIANAE VLY*   NOT AVBL
KUAOKALA*      NOT AVBL
HONOULIUULI*   NOT AVBL
MOKUOLOE IS*   NOT AVBL
PALEHUA*       NOT AVBL
WAIAWA PHB*    NOT AVBL
$$

HIZ012>013-251700-
MOLOKAI-

CITY           SKY/WX    TMP DP  RH WIND       PRES   REMARKS
MOLOKAI AIRPT  CLEAR     72  64  76 NE13G22   30.18S
KALAUPAPA      NOT AVBL
MAKAPULAPAI*   NOT AVBL
MOLOKAI 1*     NOT AVBL
PUU ALII*      NOT AVBL
$$

HIZ016-251700-
KAHOOLAWE-

CITY           SKY/WX    TMP DP  RH WIND       PRES   REMARKS
KAHOOLAWE*     NOT AVBL
HAKIOAWA*      NOT AVBL
HONOKANAIA*      N/A     73  64  72 NE6G20      N/A
KANELOA*         N/A     70  63  78 NE18G26   30.21S
KEALIALALO*    NOT AVBL
LUA MAKIKA*    NOT AVBL
$$

HIZ014>015-251700-
LANAI-

CITY           SKY/WX    TMP DP  RH WIND       PRES   REMARKS
LANAI CITY     FAIR      64  61  90 NE7       30.22R
LANAI 1*       NOT AVBL
$$

HIZ017>028-251700-
MAUI-

CITY           SKY/WX    TMP DP  RH WIND       PRES   REMARKS
KAHULUI        PTCLDY    68  63  84 NE10      30.18R
KAPALUA-W MAUI PTCLDY    72  59  64 NE12      30.18
HANA AIRPORT   PTCLDY    68  66  94 CALM      30.23R
HANA*            N/A     70 N/A N/A S3          N/A
HALEAKALA SUMM   N/A     43  16  33 E44         N/A
MAALAEA BAY*   NOT AVBL
HALEAKALA*     NOT AVBL
KAUPO GAP*     NOT AVBL
KULA 1*          N/A    N/A N/A N/A E12G24      N/A
$$

HIZ023>026-251700-
BIG ISLAND OF HAWAII COAST AND LOWER SLOPES-

CITY           SKY/WX    TMP DP  RH WIND       PRES   REMARKS
KAILUA KONA    CLOUDY    76  66  71 N3        30.12R
HILO           PTCLDY    65  56  72 SW8       30.20R
HONOKAA*         N/A     66 N/A N/A VRB1        N/A
KAWAIHAE MWT*    N/A     73 N/A N/A E1          N/A
KAWAIHAE*      NOT AVBL
SOUTH POINT*     N/A     68 N/A N/A N14G21      N/A
UPOLU AIRPORT* NOT AVBL
KAMUELA*       MOSUNNY   61  57  88 NE13      30.26R
HAKALAU*         N/A    N/A N/A N/A S6          N/A
KALOKO-HONOKO* NOT AVBL
PALI 2*          N/A     59  55  88 S18G26      N/A
KEALAKOMO*       N/A    N/A N/A N/A N17G25      N/A
KAUPULEHU*     NOT AVBL
KAPAPALA*        N/A     54  54 100 N5          N/A
LOWER KAHUKU*  NOT AVBL
PUHE CS*       NOT AVBL
PUHO CS*       NOT AVBL
PTA KEAMUKU*     N/A     55  48  76 CALM        N/A
WAIKOLOA*      NOT AVBL
$$

HIZ027>028-251700-
BIG ISLAND OF HAWAII INTERIOR AND SUMMMITS-

CITY           SKY/WX    TMP DP  RH WIND       PRES   REMARKS
BRADSHAW FIELD CLOUDY    62  10  13 SE16G23   30.42R
MK VISITOR CEN   N/A     46  10  23 E13         N/A
MAUNA KEA*       N/A     27  -6  24 E13         N/A  WCI  16
MAUNA LOA*     NOT AVBL
MAUNA LOA 1*   NOT AVBL
PTA KIPUKA*      N/A     52  43  71 SW3G14      N/A
PTA RANGE 17*    N/A    N/A N/A N/A SE15G26     N/A
PTA WEST*        N/A     48  41  76 SE3G9       N/A
NENE CABIN*    NOT AVBL
AHUMOA*        NOT AVBL
PTA PORTABLE*  NOT AVBL
PUU MALI*        N/A     61  12  15 SE10G26     N/A
$$

HIC003-251700-
NORTHWEST ISLANDS-

CITY           SKY/WX    TMP DP  RH WIND       PRES   REMARKS
MIDWAY ISLAND  CLOUDY    68  63  83 S8        30.11F
MIDWAY NOS*    NOT AVBL
FRENCH FRIGATE NOT AVBL
$$

PHZ110>124-180-251700-
BUOY REPORTS

STATION/POSITION TIME  TEMP    WIND        PRES    WAVE   SWELL
                       AIR SEA DIR/SP/G            HT/PER HT/DIR
                 (UTC) (F)     (DEG/KT/KT) (MB)    (FT/S) (FT/D)
BUOY 51001       1550   74 76  100/  6/  8 1022.5S   7/21   7/300
BUOY 51101       1550   74 76   90/  6/  8 1023.1F   9/19   8/290
BUOY 51100       NOT AVBL
BUOY 51002       1550   77 78   60/ 19/ 23 1019.0R   8/ 9   5/100
BUOY 51003       1550   77 78   50/ 10/ 12 1020.0R   6/11   5/330
BUOY 51004       1450      77   60/ 17/ 21 1019.3    8/ 8   5/ 10
BARBERS PT BUOY  NOT AVBL
WAIMEA BAY BUOY  1502      75                N/A     4/11   3/320
KAILUA BAY BUOY  1534      76                N/A     5/ 8   2/ 10
LANAI BUOY       1545      78                N/A     3/12   2/250
BARBERS PT 2     NOT AVBL
PAUWELA MAUI     1539      76                N/A     4/12   2/330
HILO             1542      78                N/A     7/ 9   3/350
KANEOHE BAY BUOY 1555      75                N/A     4/11   2
HANALEI KAUAI    1552      78                N/A     5/10   3/320
KAHULUI HARBOR   1542   75 77   10/ 12/ 15 1022.0R
HONOLULU HARBOR  1542   74 78   CALM  /  2 1022.4R
KILO NALU        NOT AVBL
HILO HARBOR      1542   68 76  240/  6/  8 1022.5R
MOKUOLOE         1536   75 79   70/  5/  7 1022.2R
NAWILIWILI       1542   74 79   50/ 10/ 12 1022.0R
WHOTS BUOY       NOT AVBL
BUOY 51028       NOT AVBL
$$

......................KEY........................................
  SKY/WX - SKY CONDITIONS/PRESENT WEATHER
  TMP    - TEMPERATURE IN FAHRENHEIT
  DWPT   - DEWPOINT IN FAHRENHEIT
  RH     - RELATIVE HUMIDITY IN PERCENT
  WIND   - DIRECTION AND SPEED /MPH FOR ISLANDS...KTS FOR BUOYS/
  PRES   - MEAN SEA LEVEL PRESSURE IN INCHES OF HG
  VSB    - VISIBILITY IN MILES
  HX     - HEAT INDEX
  WCI    - WIND CHILL INDEX
  VRB    - VARIABLE WIND DIRECTION
  N/A    - NOT AVAILABLE




USA.gov is the U.S. government's official web portal to all federal, state and local government web resources and services.